DW6455 Orivesi FI current weather conditions

sailwx.info

Wind from 319

Air temperature 21.1° C
Dewpoint 17.5° C

Last reported at 2014-Jul-25 19:42 UTC.
Time now 2014-Jul-25 20:47 UTC

Location: N 61°39' E 024°21'.
View on Google Maps.

See reports from other nearby stations

  
Tides and Currents Weather Stations Pressure Air Temp Water Temp Dewpoint Dewpoint Depression Visibility Wind Speed Wind Dir Waves Ship Positions
date/time (UTC)wind fromknots sea level pressurealtimeterstation pressurevisibilityair tempwater tempwave heightnotes
2014-Jul-25 19:42 319 21.1
2014-Jul-25 19:37 320 21.7
2014-Jul-25 19:32 320 21.7
2014-Jul-25 19:27 319 22.2
2014-Jul-25 19:22 319 22.2
2014-Jul-25 19:17 319 22.8
2014-Jul-25 19:12 319 22.8
2014-Jul-25 19:07 319 23.3
2014-Jul-25 19:02 319 23.3
2014-Jul-25 18:57 319 23.3
2014-Jul-25 18:52 320 23.9
2014-Jul-25 18:47 319 24.4
2014-Jul-25 18:42 319 24.4
2014-Jul-25 18:37 319 25.0
2014-Jul-25 18:32 319 25.0
2014-Jul-25 18:27 319 25.6
2014-Jul-25 18:22 319 25.6
2014-Jul-25 18:17 320 26.1
2014-Jul-25 18:12 320 26.7
2014-Jul-25 18:07 319 26.7
2014-Jul-25 18:02 319 27.2
2014-Jul-25 17:57 319 27.2
2014-Jul-25 17:52 319 0 gusting 3 27.2
2014-Jul-25 17:47 319 0 gusting 3 27.8
2014-Jul-25 17:42 315 27.8
2014-Jul-25 17:37 319 28.3
2014-Jul-25 17:32 319 28.3
2014-Jul-25 17:27 319 0 gusting 2 28.3
2014-Jul-25 17:22 319 28.3
2014-Jul-25 17:17 319 28.9
2014-Jul-25 17:12 319 0 gusting 6 28.9
2014-Jul-25 17:07 319 1 gusting 6 28.9
2014-Jul-25 17:02 019 2 gusting 6 28.3
2014-Jul-25 16:57 069 0 gusting 3 28.9
2014-Jul-25 16:52 069 0 gusting 2 28.9
2014-Jul-25 16:47 005 0 gusting 2 28.9
2014-Jul-25 16:42 348 0 gusting 4 28.9
2014-Jul-25 16:37 348 0 gusting 4 28.9
2014-Jul-25 16:32 348 1 gusting 3 28.9
2014-Jul-25 16:22 348 1 gusting 4 28.9
2014-Jul-25 16:17 347 1 gusting 4 28.9
2014-Jul-25 16:12 342 1 gusting 4 28.9
2014-Jul-25 16:07 005 0 gusting 4 29.4
2014-Jul-25 16:02 009 1 gusting 4 29.4
2014-Jul-25 15:57 030 1 gusting 4 29.4
2014-Jul-25 15:52 030 1 gusting 3 29.4
2014-Jul-25 15:42 030 0 gusting 3 29.4
2014-Jul-25 15:37 030 0 gusting 3 29.4
2014-Jul-25 15:32 031 0 gusting 4 29.4
2014-Jul-25 15:27 085 0 gusting 4 29.4
2014-Jul-25 15:22 022 1 gusting 4 29.4
2014-Jul-25 15:17 329 0 gusting 2 29.4
2014-Jul-25 15:12 300 0 gusting 2 28.9
2014-Jul-25 15:07 301 0 gusting 2 28.9
2014-Jul-25 15:02 301 0 gusting 3 28.9
2014-Jul-25 14:57 301 0 gusting 4 28.9
2014-Jul-25 14:42 318 1 gusting 6 28.9
2014-Jul-25 14:37 296 1 gusting 6 29.4
2014-Jul-25 14:27 317 0 gusting 5 29.4
2014-Jul-25 14:22 323 1 gusting 5 29.4
2014-Jul-25 14:17 306 0 gusting 6 29.4
2014-Jul-25 14:12 328 1 gusting 6 29.4
2014-Jul-25 14:07 344 2 gusting 9 30.0
2014-Jul-25 14:02 355 2 gusting 9 30.0
2014-Jul-25 13:47 348 2 gusting 6 30.0
2014-Jul-25 13:42 209 2 gusting 7 30.0
2014-Jul-25 13:37 186 2 gusting 7 30.0
2014-Jul-25 13:32 161 2 gusting 7 30.0
2014-Jul-25 13:27 200 2 gusting 7 30.0
2014-Jul-25 13:17 160 3 gusting 7 29.4
2014-Jul-25 13:12 184 3 gusting 6 29.4
2014-Jul-25 13:07 149 3 gusting 6 28.9
2014-Jul-25 13:02 159 2 gusting 6 28.9
2014-Jul-25 12:57 157 2 gusting 6 28.9
2014-Jul-25 12:52 148 2 gusting 6 28.9
2014-Jul-25 12:47 147 2 gusting 6 28.3
2014-Jul-25 12:42 124 1 gusting 6 28.3
2014-Jul-25 12:37 145 1 gusting 6 28.3
2014-Jul-25 12:32 142 1 gusting 5 28.3
2014-Jul-25 12:27 150 1 gusting 5 28.3
2014-Jul-25 12:22 146 1 gusting 5 28.3
2014-Jul-25 12:17 146 1 gusting 5 28.3
2014-Jul-25 12:12 151 1 gusting 6 28.3
2014-Jul-25 12:07 192 2 gusting 6 28.3
2014-Jul-25 12:02 201 1 gusting 6 27.8
2014-Jul-25 11:57 157 1 gusting 5 27.8
2014-Jul-25 11:52 198 1 gusting 5 27.8
2014-Jul-25 11:47 198 1 gusting 6 27.8
2014-Jul-25 11:42 215 1 gusting 6 27.8
2014-Jul-25 11:37 190 2 gusting 6 27.8
2014-Jul-25 11:32 175 1 gusting 6 27.8
2014-Jul-25 11:27 219 2 gusting 6 27.8
2014-Jul-25 11:22 220 3 gusting 7 27.2
2014-Jul-25 11:17 191 2 gusting 9 27.2
2014-Jul-25 11:12 194 2 gusting 9 26.7
2014-Jul-25 11:07 126 3 gusting 9 26.1
2014-Jul-25 11:02 194 2 gusting 7 26.1
2014-Jul-25 10:57 144 1 gusting 5 26.7
2014-Jul-25 10:52 140 1 gusting 4 26.7
2014-Jul-25 10:47 168 1 gusting 4 26.7
2014-Jul-25 10:42 150 1 gusting 4 27.2
2014-Jul-25 10:37 152 1 gusting 5 27.2
2014-Jul-25 10:32 162 2 gusting 5 27.8
2014-Jul-25 10:27 179 2 gusting 5 28.3
2014-Jul-25 10:22 158 1 gusting 4 28.3
2014-Jul-25 10:17 173 1 gusting 3 28.9
2014-Jul-25 10:12 139 1 gusting 3 28.9
2014-Jul-25 10:07 139 2 gusting 4 28.9
2014-Jul-25 10:02 142 2 gusting 4 28.9
2014-Jul-25 09:57 134 1 gusting 5 28.9
2014-Jul-25 09:52 152 2 gusting 5 28.9
2014-Jul-25 09:47 152 2 gusting 4 28.9
2014-Jul-25 09:42 147 1 gusting 5 28.3
2014-Jul-25 09:37 186 2 gusting 5 28.3
2014-Jul-25 09:32 162 2 gusting 5 27.8
2014-Jul-25 09:27 175 2 gusting 5 27.8
2014-Jul-25 09:22 165 1 gusting 5 27.8
2014-Jul-25 09:17 176 2 gusting 5 27.8
2014-Jul-25 09:12 179 2 gusting 5 27.8
2014-Jul-25 09:07 195 1 gusting 4 27.8
2014-Jul-25 08:57 175 1 gusting 4 27.2
2014-Jul-25 08:52 175 1 gusting 3 27.2
2014-Jul-25 08:47 154 1 gusting 3 27.2
2014-Jul-25 08:42 140 0 gusting 3 27.2
2014-Jul-25 08:37 140 0 gusting 3 27.2
2014-Jul-25 08:32 140 1 gusting 3 26.7
2014-Jul-25 08:27 140 1 gusting 2 26.7
2014-Jul-25 08:22 140 0 gusting 2 26.7
2014-Jul-25 08:17 140 0 gusting 2 26.7
2014-Jul-25 08:12 140 0 gusting 2 26.1
2014-Jul-25 08:07 146 0 gusting 4 26.1
2014-Jul-25 08:02 146 1 gusting 5 26.1
2014-Jul-25 07:57 205 2 gusting 5 25.6
2014-Jul-25 07:52 166 2 gusting 5 25.6
2014-Jul-25 07:47 154 1 gusting 5 25.6
2014-Jul-25 07:42 168 1 gusting 4 25.6
2014-Jul-25 07:37 177 1 gusting 3 25.6
2014-Jul-25 07:32 150 1 gusting 3 25.6
2014-Jul-25 07:27 150 1 gusting 3 25.6
2014-Jul-25 07:22 150 1 gusting 3 25.6
2014-Jul-25 07:17 151 1 gusting 3 25.0
2014-Jul-25 07:07 151 0 gusting 3 25.0
2014-Jul-25 07:02 152 1 gusting 3 25.0
2014-Jul-25 06:57 151 1 gusting 3 25.0
2014-Jul-25 06:52 151 1 gusting 3 24.4
2014-Jul-25 06:47 152 1 gusting 3 24.4
2014-Jul-25 06:42 153 1 gusting 3 24.4
2014-Jul-25 06:37 153 1 gusting 3 24.4
2014-Jul-25 06:32 152 1 gusting 3 24.4
2014-Jul-25 06:27 152 0 gusting 4 23.9
2014-Jul-25 06:22 154 1 gusting 4 23.9
2014-Jul-25 06:17 153 1 gusting 4 23.9
2014-Jul-25 06:12 161 1 gusting 3 23.9
2014-Jul-25 06:07 171 0 gusting 2 23.9
2014-Jul-25 06:02 175 0 gusting 3 24.4
2014-Jul-25 05:57 175 0 gusting 3 24.4
2014-Jul-25 05:52 175 0 gusting 3 24.4
2014-Jul-25 05:47 196 1 gusting 3 25.0
2014-Jul-25 05:42 196 1 gusting 3 25.0
2014-Jul-25 05:37 197 1 gusting 3 25.0
2014-Jul-25 05:32 197 0 gusting 2 24.4
2014-Jul-25 05:27 197 0 gusting 1 24.4
2014-Jul-25 05:22 198 24.4
2014-Jul-25 05:17 197 24.4
2014-Jul-25 05:12 197 23.3
2014-Jul-25 05:07 196 22.8
2014-Jul-25 05:02 197 21.7
2014-Jul-25 04:57 197 21.7
2014-Jul-25 04:52 196 21.1
2014-Jul-25 04:47 197 20.6
2014-Jul-25 04:42 193 20.0
2014-Jul-25 04:37 193 20.0
2014-Jul-25 04:32 193 20.0
2014-Jul-25 04:27 192 19.4
2014-Jul-25 04:22 193 19.4
2014-Jul-25 04:17 194 19.4
2014-Jul-25 04:12 192 0 gusting 2 18.9
2014-Jul-25 04:07 192 0 gusting 1 18.9
2014-Jul-25 04:02 192 18.3
2014-Jul-25 03:57 192 18.3
2014-Jul-25 03:52 192 18.3
2014-Jul-25 03:47 192 17.8
2014-Jul-25 03:42 192 17.8
2014-Jul-25 03:37 192 17.8
2014-Jul-25 03:32 192 17.2
2014-Jul-25 03:27 193 17.2
2014-Jul-25 03:22 193 17.2
2014-Jul-25 03:17 192 17.2
2014-Jul-25 03:12 192 17.2
2014-Jul-25 03:07 192 17.2
2014-Jul-25 03:02 192 16.7
2014-Jul-25 02:57 192 16.7
2014-Jul-25 02:52 193 16.7
2014-Jul-25 02:47 192 16.7
2014-Jul-25 02:42 192 16.7
2014-Jul-25 02:37 192 16.7
2014-Jul-25 02:32 192 17.2
2014-Jul-25 02:27 192 17.2
2014-Jul-25 02:22 192 16.7
2014-Jul-25 02:17 192 16.7
2014-Jul-25 02:12 192 16.7
2014-Jul-25 02:07 192 16.7
2014-Jul-25 02:02 192 17.2
2014-Jul-25 01:57 192 17.2
2014-Jul-25 01:52 192 17.2
2014-Jul-25 01:47 192 17.2
2014-Jul-25 01:42 193 17.2
2014-Jul-25 01:37 192 17.2
2014-Jul-25 01:32 192 17.2
2014-Jul-25 01:27 192 17.2
2014-Jul-25 01:22 192 17.8
2014-Jul-25 01:17 193 17.8
2014-Jul-25 01:12 192 17.8
2014-Jul-25 01:07 193 17.8
2014-Jul-25 01:02 193 17.8
2014-Jul-25 00:57 192 17.8
2014-Jul-25 00:52 193 17.8
2014-Jul-25 00:47 192 17.8
2014-Jul-25 00:42 192 17.8
2014-Jul-25 00:37 193 17.8
2014-Jul-25 00:32 192 17.8
2014-Jul-25 00:27 192 17.8
2014-Jul-25 00:22 192 0 gusting 2 17.8
2014-Jul-25 00:17 192 0 gusting 2 17.8
2014-Jul-25 00:12 193 17.8
2014-Jul-25 00:07 193 0 gusting 2 18.3
2014-Jul-25 00:02 192 0 gusting 2 18.3
2014-Jul-24 23:57 192 0 gusting 2 18.3
2014-Jul-24 23:52 192 0 gusting 2 17.8
2014-Jul-24 23:47 192 17.8
2014-Jul-24 23:42 192 17.8
2014-Jul-24 23:37 192 17.8
2014-Jul-24 23:32 193 17.8
2014-Jul-24 23:27 192 18.3
2014-Jul-24 23:22 192 18.3
2014-Jul-24 23:17 192 18.3
2014-Jul-24 23:12 193 18.3
2014-Jul-24 23:07 192 18.3
2014-Jul-24 23:02 193 18.3
2014-Jul-24 22:57 192 18.3
2014-Jul-24 22:52 192 18.3
2014-Jul-24 22:47 192 0 gusting 2 18.3
2014-Jul-24 22:42 193 0 gusting 1 18.3
2014-Jul-24 22:37 192 18.3
2014-Jul-24 22:32 192 18.3
2014-Jul-24 22:27 192 18.9
2014-Jul-24 22:22 192 18.9
2014-Jul-24 22:17 192 18.9
2014-Jul-24 22:12 193 18.9
2014-Jul-24 22:07 192 0 gusting 2 19.4
2014-Jul-24 22:02 192 0 gusting 2 19.4
2014-Jul-24 21:57 192 0 gusting 1 19.4
2014-Jul-24 21:52 192 19.4
2014-Jul-24 21:47 192 0 gusting 2 19.4
2014-Jul-24 21:42 193 0 gusting 2 19.4
2014-Jul-24 21:37 193 0 gusting 2 19.4
2014-Jul-24 21:32 187 0 gusting 2 19.4
2014-Jul-24 21:27 187 19.4
2014-Jul-24 21:22 187 19.4
2014-Jul-24 21:17 187 19.4
2014-Jul-24 21:12 187 19.4
2014-Jul-24 21:07 187 19.4
2014-Jul-24 21:02 187 19.4
2014-Jul-24 20:57 186 20.0
2014-Jul-24 20:52 187 20.0
2014-Jul-24 20:47 187 20.0
2014-Jul-24 20:42 187 20.0
2014-Jul-24 20:37 187 20.0
2014-Jul-24 20:32 186 20.6
2014-Jul-24 20:27 188 20.6
2014-Jul-24 20:22 187 20.6
2014-Jul-24 20:17 187 20.6
2014-Jul-24 20:12 187 0 gusting 6 20.6
2014-Jul-24 20:07 188 1 gusting 6 20.0
2014-Jul-24 20:02 187 0 gusting 6 20.0
2014-Jul-24 19:57 186 20.6
2014-Jul-24 19:52 187 20.6
2014-Jul-24 19:47 187 20.6
2014-Jul-24 19:42 187 20.6
2014-Jul-24 19:37 186 1 gusting 3 21.1
2014-Jul-24 19:32 186 0 gusting 3 21.1
2014-Jul-24 19:27 122 21.1
2014-Jul-24 19:22 044 21.7
2014-Jul-24 19:17 044 21.7
2014-Jul-24 19:12 044 21.7
2014-Jul-24 19:07 044 22.2
2014-Jul-24 19:02 044 22.2
2014-Jul-24 18:57 044 22.8
2014-Jul-24 18:52 044 23.3
2014-Jul-24 18:47 044 23.3
2014-Jul-24 18:42 045 23.9
2014-Jul-24 18:37 044 24.4
2014-Jul-24 18:32 044 24.4
2014-Jul-24 18:27 045 0 gusting 1 25.0
2014-Jul-24 18:22 044 0 gusting 1 25.6
2014-Jul-24 18:17 044 25.6
2014-Jul-24 18:12 045 26.1
2014-Jul-24 18:07 044 26.7
2014-Jul-24 18:02 044 26.7
2014-Jul-24 17:57 044 26.7
2014-Jul-24 17:52 044 27.2
2014-Jul-24 17:47 044 27.8
2014-Jul-24 17:42 044 27.8
2014-Jul-24 17:37 044 28.3
2014-Jul-24 17:32 044 28.3
2014-Jul-24 17:27 044 28.3
2014-Jul-24 17:22 044 28.3
2014-Jul-24 17:17 044 28.9
2014-Jul-24 17:12 044 28.9
2014-Jul-24 17:07 044 28.9
2014-Jul-24 17:02 044 28.9
2014-Jul-24 16:57 044 28.9
2014-Jul-24 16:52 044 0 gusting 3 28.9
2014-Jul-24 16:47 044 0 gusting 3 28.9
2014-Jul-24 16:42 044 0 gusting 2 28.9
2014-Jul-24 16:37 134 28.9
2014-Jul-24 16:32 136 28.9
2014-Jul-24 16:27 134 28.9
2014-Jul-24 16:22 134 28.9
2014-Jul-24 16:17 134 28.9
2014-Jul-24 16:12 134 28.9
2014-Jul-24 16:07 134 0 gusting 3 28.9
2014-Jul-24 16:02 135 0 gusting 3 28.9
2014-Jul-24 15:57 171 28.9
2014-Jul-24 15:52 282 28.9
2014-Jul-24 15:47 281 28.9
2014-Jul-24 15:42 282 28.9
2014-Jul-24 15:37 282 28.9
2014-Jul-24 15:32 185 29.4
2014-Jul-24 15:27 185 28.9
2014-Jul-24 15:22 186 0 gusting 3 29.4
2014-Jul-24 15:17 185 0 gusting 6 29.4
2014-Jul-24 15:12 173 0 gusting 6 29.4
2014-Jul-24 15:07 300 0 gusting 6 28.9
2014-Jul-24 15:02 286 28.9
2014-Jul-24 14:57 298 28.9
2014-Jul-24 14:52 298 0 gusting 4 28.9
2014-Jul-24 14:47 298 0 gusting 4 28.9
2014-Jul-24 14:42 285 0 gusting 5 28.9
2014-Jul-24 14:37 325 1 gusting 5 28.9
2014-Jul-24 14:32 333 1 gusting 5 28.9
2014-Jul-24 14:27 242 0 gusting 5 28.3
2014-Jul-24 14:22 272 0 gusting 4 28.3
2014-Jul-24 14:17 196 1 gusting 5 27.8
2014-Jul-24 14:12 196 0 gusting 5 27.8
2014-Jul-24 14:07 198 1 gusting 5 27.8
2014-Jul-24 14:02 215 0 gusting 2 27.8
2014-Jul-24 13:57 304 27.8
2014-Jul-24 13:52 304 27.8
2014-Jul-24 13:47 304 28.3
2014-Jul-24 13:42 304 28.3
2014-Jul-24 13:37 304 0 gusting 5 28.3
2014-Jul-24 13:32 304 1 gusting 5 28.9
2014-Jul-24 13:27 313 0 gusting 5 28.9
2014-Jul-24 13:22 203 28.9
2014-Jul-24 13:17 203 0 gusting 3 28.9
2014-Jul-24 13:12 203 0 gusting 3 29.4
2014-Jul-24 13:07 204 29.4
2014-Jul-24 13:02 204 28.9
2014-Jul-24 12:57 203 0 gusting 5 28.9
2014-Jul-24 12:52 192 0 gusting 7 28.9
2014-Jul-24 12:47 192 1 gusting 7 28.9
2014-Jul-24 12:42 192 1 gusting 7 28.9
2014-Jul-24 12:37 243 0 gusting 4 28.9
2014-Jul-24 12:32 185 1 gusting 5 28.9
2014-Jul-24 12:27 232 1 gusting 6 28.3
2014-Jul-24 12:22 188 2 gusting 6 28.3
2014-Jul-24 12:17 171 2 gusting 4 28.3
2014-Jul-24 12:12 124 2 gusting 6 28.3
2014-Jul-24 12:07 161 2 gusting 6 28.3
2014-Jul-24 12:02 147 3 gusting 6 28.3
2014-Jul-24 11:57 164 2 gusting 5 28.3
2014-Jul-24 11:52 148 2 gusting 4 28.3
2014-Jul-24 11:47 137 1 gusting 4 28.3
2014-Jul-24 11:42 128 1 gusting 6 28.3
2014-Jul-24 11:37 154 2 gusting 6 27.8
2014-Jul-24 11:32 186 2 gusting 6 27.8
2014-Jul-24 11:27 140 1 gusting 3 27.8
2014-Jul-24 11:22 123 1 gusting 4 27.2
2014-Jul-24 11:17 123 1 gusting 4 27.2
2014-Jul-24 11:12 165 0 gusting 4 27.2
2014-Jul-24 11:07 175 0 gusting 3 27.2
2014-Jul-24 11:02 177 0 gusting 6 27.8
2014-Jul-24 10:57 175 1 gusting 6 27.8
2014-Jul-24 10:52 177 2 gusting 6 27.8
2014-Jul-24 10:47 153 3 gusting 6 27.8
2014-Jul-24 10:42 163 3 gusting 6 27.8
2014-Jul-24 10:37 161 1 gusting 6 27.8
2014-Jul-24 10:32 155 1 gusting 6 27.2
2014-Jul-24 10:27 195 2 gusting 6 27.2
2014-Jul-24 10:22 215 1 gusting 4 26.7
2014-Jul-24 10:17 161 0 gusting 2 26.7
2014-Jul-24 10:12 187 0 gusting 4 26.7
2014-Jul-24 10:07 187 0 gusting 4 27.2
2014-Jul-24 10:02 187 1 gusting 5 27.2
2014-Jul-24 09:57 129 2 gusting 5 27.2
2014-Jul-24 09:52 153 1 gusting 6 27.2
2014-Jul-24 09:47 141 2 gusting 6 27.2
2014-Jul-24 09:42 150 3 gusting 6 27.2
2014-Jul-24 09:37 142 2 gusting 4 27.2
2014-Jul-24 09:32 164 1 gusting 6 27.2
2014-Jul-24 09:27 162 2 gusting 6 27.2
2014-Jul-24 09:22 138 3 gusting 7 27.2
2014-Jul-24 09:12 147 3 gusting 7 27.2
2014-Jul-24 09:07 151 3 gusting 7 27.2
2014-Jul-24 09:02 139 3 gusting 7 27.2
2014-Jul-24 08:57 161 3 gusting 6 27.2
2014-Jul-24 08:52 145 2 gusting 4 27.2
2014-Jul-24 08:47 144 1 gusting 4 27.2
2014-Jul-24 08:42 143 1 gusting 4 26.7
2014-Jul-24 08:37 143 1 gusting 4 26.7
2014-Jul-24 08:32 163 0 gusting 6 26.7
2014-Jul-24 08:27 196 2 gusting 6 26.1
2014-Jul-24 08:22 211 2 gusting 5 26.1
2014-Jul-24 08:17 196 2 gusting 5 26.7
2014-Jul-24 08:12 181 3 gusting 5 26.7
2014-Jul-24 08:07 160 2 gusting 5 26.7
2014-Jul-24 08:02 180 1 gusting 5 26.7
2014-Jul-24 07:57 156 2 gusting 5 26.1
2014-Jul-24 07:52 156 2 gusting 5 26.1
2014-Jul-24 07:47 155 1 gusting 3 26.1
2014-Jul-24 07:42 150 1 gusting 3 26.1
2014-Jul-24 07:37 116 0 gusting 2 26.1
2014-Jul-24 07:32 098 0 gusting 2 26.1
2014-Jul-24 07:27 098 1 gusting 2 26.1
2014-Jul-24 07:22 098 1 gusting 3 26.1
2014-Jul-24 07:17 098 1 gusting 3 26.1
2014-Jul-24 07:12 098 1 gusting 3 25.6
2014-Jul-24 07:07 102 0 gusting 3 25.6
2014-Jul-24 07:02 074 0 gusting 3 25.6
2014-Jul-24 06:57 074 0 gusting 3 25.6
2014-Jul-24 06:52 074 0 gusting 3 25.6
2014-Jul-24 06:47 074 0 gusting 3 25.6
2014-Jul-24 06:42 087 0 gusting 3 25.0
2014-Jul-24 06:37 087 0 gusting 3 25.0
2014-Jul-24 06:32 088 1 gusting 3 25.0
2014-Jul-24 06:27 095 1 gusting 2 25.0
2014-Jul-24 06:22 026 0 gusting 2 25.0
2014-Jul-24 06:17 355 0 gusting 2 25.0
2014-Jul-24 06:12 355 0 gusting 2 25.6
2014-Jul-24 06:07 351 0 gusting 3 25.6
2014-Jul-24 06:02 355 0 gusting 3 25.6
2014-Jul-24 05:57 355 0 gusting 3 26.1
2014-Jul-24 05:52 090 26.1
2014-Jul-24 05:47 096 0 gusting 3 25.6
2014-Jul-24 04:47 213 20.0
2014-Jul-24 04:42 213 19.4
2014-Jul-24 04:37 213 19.4
2014-Jul-24 04:32 213 19.4
2014-Jul-24 04:27 213 18.9
2014-Jul-24 04:22 213 18.9
2014-Jul-24 04:17 213 18.3
2014-Jul-24 04:12 213 18.3
2014-Jul-24 04:07 213 17.8
2014-Jul-24 04:02 213 17.8
2014-Jul-24 03:57 213 17.2
2014-Jul-24 03:52 213 17.2
2014-Jul-24 03:47 213 16.7
2014-Jul-24 03:42 213 16.7
2014-Jul-24 03:37 213 16.7
2014-Jul-24 03:32 213 16.1
2014-Jul-24 03:27 214 16.1
2014-Jul-24 03:22 213 16.1
2014-Jul-24 03:17 213 16.1
2014-Jul-24 03:12 214 15.6
2014-Jul-24 03:07 214 15.6
2014-Jul-24 03:02 213 15.6
2014-Jul-24 02:57 213 15.6
2014-Jul-24 02:52 213 15.6
2014-Jul-24 02:47 213 15.6
2014-Jul-24 02:42 213 15.0
2014-Jul-24 02:37 214 15.0
2014-Jul-24 02:32 213 15.0
2014-Jul-24 02:27 214 15.0
2014-Jul-24 02:22 213 15.0
2014-Jul-24 02:17 213 0 gusting 1 15.0
2014-Jul-24 02:12 213 0 gusting 1 15.0
2014-Jul-24 02:07 213 0 gusting 1 15.0
2014-Jul-24 02:02 213 0 gusting 1 15.0
2014-Jul-24 01:57 213 15.0
2014-Jul-24 01:52 213 15.6
2014-Jul-24 01:47 213 0 gusting 2 15.6
2014-Jul-24 01:42 213 1 gusting 2 15.6
2014-Jul-24 01:37 213 0 gusting 1 15.6
2014-Jul-24 01:32 213 0 gusting 1 15.0
2014-Jul-24 01:27 214 15.6
2014-Jul-24 01:22 213 15.6
2014-Jul-24 01:17 213 15.6
2014-Jul-24 01:12 213 15.6
2014-Jul-24 01:02 214 0 gusting 1 15.6
2014-Jul-24 00:57 213 0 gusting 1 15.6
2014-Jul-24 00:52 213 0 gusting 2 15.6
2014-Jul-24 00:47 213 1 gusting 2 15.6
2014-Jul-24 00:42 213 0 gusting 1 15.6
2014-Jul-24 00:37 213 0 gusting 1 16.1
2014-Jul-24 00:32 213 16.1
2014-Jul-24 00:27 213 16.1
2014-Jul-24 00:22 213 16.1
2014-Jul-24 00:17 213 16.1
2014-Jul-24 00:12 213 16.1
2014-Jul-24 00:07 213 16.1
2014-Jul-24 00:02 213 16.1
2014-Jul-23 23:57 213 16.1
2014-Jul-23 23:52 213 16.7
2014-Jul-23 23:47 213 0 gusting 1 16.7
2014-Jul-23 23:42 214 0 gusting 1 16.7
2014-Jul-23 23:37 213 16.7
2014-Jul-23 23:32 213 0 gusting 1 16.7
2014-Jul-23 23:27 213 0 gusting 1 16.7
2014-Jul-23 23:22 213 16.7
2014-Jul-23 23:17 214 17.2
2014-Jul-23 23:12 213 17.2
2014-Jul-23 23:07 213 17.2
2014-Jul-23 23:02 213 17.2
2014-Jul-23 22:57 213 17.2
2014-Jul-23 22:52 213 17.8
2014-Jul-23 22:47 213 17.8
2014-Jul-23 22:42 214 17.8
2014-Jul-23 22:37 213 17.8
2014-Jul-23 22:32 213 18.3
2014-Jul-23 22:27 214 18.3
2014-Jul-23 22:22 213 18.3
2014-Jul-23 22:17 213 18.3
2014-Jul-23 22:12 213 18.9
2014-Jul-23 22:07 213 18.9
2014-Jul-23 22:02 213 18.9
2014-Jul-23 21:57 213 19.4
2014-Jul-23 21:52 213 19.4
2014-Jul-23 21:47 213 19.4
2014-Jul-23 21:42 213 19.4
2014-Jul-23 21:37 213 19.4
2014-Jul-23 21:32 213 19.4
2014-Jul-23 21:27 213 20.0
2014-Jul-23 21:22 213 20.0
2014-Jul-23 21:17 213 0 gusting 2 20.0
2014-Jul-23 21:12 213 0 gusting 2 20.0
2014-Jul-23 21:07 213 20.0
2014-Jul-23 21:02 213 20.0
2014-Jul-23 20:57 213 20.6
2014-Jul-23 20:52 213 20.6
2014-Jul-23 20:47 213 20.6
2014-Jul-23 20:42 213 20.6
2014-Jul-23 20:37 213 21.1
2014-Jul-23 20:32 213 0 gusting 3 21.1
2014-Jul-23 20:27 213 0 gusting 4 21.1
2014-Jul-23 20:22 213 1 gusting 5 21.7
2014-Jul-23 20:17 213 1 gusting 5 21.7
2014-Jul-23 20:12 213 1 gusting 5 21.7
2014-Jul-23 20:07 205 1 gusting 2 22.2
2014-Jul-23 20:02 202 1 gusting 3 22.2